DateTimeUTC,F1_A11,F1_S11,BsB_S11,BsG_S11,BsR_S11,BbsB_S11,BbsG_S11,BbsR_S11,BaB_A11,BaG_A11,BaR_A11,Tu_S11,T_S11,Uu_S11,U_S11,P_S11,T1_A11
2021-07-01T07:00:00Z,00000200,20000000,,,,,,,-000.28,-000.17,-000.36,18.4,25.2,02.9,01.9,0670.8,31.1
2021-07-01T07:01:00Z,00000200,20000000,,,,,,,0000.36,0000.03,0000.61,18.5,25.2,02.9,01.9,0670.8,31.1
2021-07-01T07:02:00Z,00000200,20000000,,,,,,,-000.23,-000.09,-000.42,18.5,25.2,02.9,01.9,0670.8,31.1
2021-07-01T07:03:00Z,00000200,60000000,,,,,,,0000.41,0000.69,0000.19,18.5,25.3,02.9,01.9,0670.8,31.1
2021-07-01T07:04:00Z,00000200,40000000,0000.21,0000.18,0000.21,-000.31,0000.32,0000.09,-000.15,-000.21,0000.03,18.6,25.1,03.2,02.2,0671.7,31.1
2021-07-01T07:05:00Z,00000200,00000000,0000.20,-000.11,0000.17,0000.35,0000.27,-000.31,-000.02,-000.29,0000.05,18.5,25.0,03.3,02.2,0671.8,31.1
2021-07-01T07:06:00Z,00000200,00000000,0000.19,0000.19,0000.08,-000.45,0000.03,0000.02,-000.05,0000.03,0000.12,18.5,24.9,03.4,02.3,0671.9,31.1
2021-07-01T07:07:00Z,00000200,00000000,0000.45,0000.22,0000.20,-000.61,0000.01,0000.07,0000.45,0000.20,0000.10,18.4,24.9,03.5,02.3,0671.9,31.0
2021-07-01T07:08:00Z,00000200,00000000,0000.26,0000.53,0000.20,0000.56,0000.02,0000.26,0000.06,0000.05,-000.09,18.4,24.9,03.6,02.4,0671.9,31.0
2021-07-01T07:09:00Z,00000200,00000000,-000.33,-000.37,0000.16,-000.34,0000.11,-000.15,0000.00,-000.01,0000.14,18.4,24.9,03.5,02.4,0671.9,31.0
2021-07-01T07:10:00Z,00000200,00000000,0000.51,0000.18,0000.13,-000.19,-000.11,0000.20,0000.18,0000.07,-000.09,18.5,24.9,03.6,02.4,0671.8,31.1
2021-07-01T07:11:00Z,00000200,00000000,0000.35,0000.01,-000.02,-000.06,0000.10,-000.13,-000.15,0000.15,0000.38,18.5,24.9,03.6,02.5,0671.9,31.1
2021-07-01T07:12:00Z,00000200,00000000,0000.58,0000.23,0000.14,0000.57,-000.20,0000.23,0000.07,0000.19,-000.18,18.6,24.9,03.5,02.4,0671.9,31.1
2021-07-01T07:13:00Z,00000200,00000000,0000.46,0000.40,-000.15,0000.17,-000.01,-000.26,0000.15,0000.15,0000.39,18.7,25.0,03.5,02.4,0672.0,31.1
2021-07-01T07:14:00Z,00000200,00000000,0000.15,0000.23,-000.05,-000.07,0000.07,-000.15,0000.03,-000.01,-000.29,18.8,25.0,03.5,02.4,0672.0,31.1
2021-07-01T07:15:00Z,00000200,00000000,0000.36,0000.40,-000.28,0000.17,0000.11,-000.48,0000.02,0000.04,0000.19,18.8,25.1,03.5,02.4,0672.0,31.1
2021-07-01T07:16:00Z,00000200,00000000,0000.69,0000.16,-000.02,0000.42,0000.08,-000.26,0000.03,0000.27,0000.22,18.9,25.1,03.5,02.4,0672.0,31.1
2021-07-01T07:17:00Z,00000200,00000000,0000.25,0000.36,0000.06,-000.01,0000.28,0000.13,0000.15,0000.02,-000.03,18.9,25.1,03.5,02.4,0672.0,31.1
2021-07-01T07:18:00Z,00000200,00000000,0000.05,0000.27,-000.32,0000.00,0000.03,-000.43,-000.11,0000.30,0000.01,18.8,25.1,03.6,02.5,0672.0,31.1
2021-07-01T07:19:00Z,00000200,00000000,0000.37,-000.21,0000.01,-000.17,-000.07,-000.47,0000.13,-000.31,-000.29,18.8,25.1,03.7,02.5,0671.9,31.1
2021-07-01T07:20:00Z,00000200,00000000,0000.28,-000.06,0000.14,0000.27,0000.18,-000.18,0000.04,-000.21,0000.29,18.7,25.0,03.7,02.5,0671.9,31.1
2021-07-01T07:21:00Z,00000200,00000000,0000.15,0000.07,-000.10,-000.31,0000.19,-000.05,-000.05,0000.04,0000.04,18.7,25.0,03.7,02.5,0671.9,31.1
2021-07-01T07:22:00Z,00000200,00000000,-000.14,-000.19,0000.23,0000.02,0000.23,-000.18,0000.03,-000.05,-000.03,18.6,25.0,03.6,02.5,0672.0,31.0
2021-07-01T07:23:00Z,00000200,00000000,-000.20,-000.12,0000.08,-000.11,0000.14,0000.09,0000.31,-000.21,-000.07,18.6,24.9,03.7,02.5,0672.0,31.1
2021-07-01T07:24:00Z,00000200,00000000,0000.31,-000.13,0000.29,-000.10,-000.07,0000.09,-000.47,0000.15,0000.05,18.6,24.9,03.6,02.5,0672.0,31.1
2021-07-01T07:25:00Z,00000200,00000000,0000.12,0000.31,-000.02,-000.05,0000.01,-000.13,0000.70,0000.55,0000.50,18.6,24.9,03.6,02.4,0672.1,31.1
2021-07-01T07:26:00Z,00000200,00000000,0000.19,0000.08,0000.34,-000.35,0000.28,0000.10,0000.13,-000.26,-000.44,18.7,25.0,03.7,02.5,0672.1,31.1
2021-07-01T07:27:00Z,00000200,00000000,-000.06,0000.20,0000.11,-000.04,0000.26,-000.06,-000.15,0000.41,0000.19,18.8,25.0,03.6,02.5,0672.1,31.1
2021-07-01T07:28:00Z,00000200,00000000,0000.24,0000.17,0000.49,0000.03,0000.32,0000.10,0000.02,-000.22,0000.04,18.8,25.0,03.6,02.5,0672.1,31.1
2021-07-01T07:29:00Z,00000200,00000000,-000.24,0000.07,-000.07,-000.28,-000.00,-000.15,0000.05,0000.33,-000.07,18.9,25.1,03.6,02.5,0672.1,31.1
2021-07-01T07:30:00Z,00000200,00000000,-000.02,0000.53,0000.27,-000.08,0000.08,-000.08,-000.01,-000.09,0000.20,19.0,25.1,03.7,02.5,0672.2,31.2
2021-07-01T07:31:00Z,00000200,00000000,-000.07,-000.05,0000.04,-000.25,-000.09,-000.08,-000.22,-000.17,-000.27,19.0,25.1,03.6,02.5,0672.2,31.1
2021-07-01T07:32:00Z,00000200,00000000,0000.42,0000.24,0000.18,0000.04,0000.29,-000.25,0000.15,-000.04,0000.20,19.0,25.2,03.6,02.5,0672.2,31.1
2021-07-01T07:33:00Z,00000200,00000000,0000.51,0000.27,0000.13,0000.42,0000.05,0000.03,-000.18,0000.21,-000.24,18.9,25.2,03.6,02.5,0672.2,31.1
2021-07-01T07:34:00Z,00000200,00000000,0000.17,0000.38,0000.09,-000.44,-000.07,0000.04,0000.21,-000.18,0000.26,18.9,25.1,03.7,02.6,0672.2,31.1
2021-07-01T07:35:00Z,00000200,00000000,0000.04,0000.12,-000.08,0000.07,-000.07,-000.05,-000.18,-000.01,-000.24,18.8,25.1,03.7,02.5,0672.1,31.1
2021-07-01T07:36:00Z,00000200,00000000,0000.24,0000.03,0000.33,0000.72,0000.15,-000.03,0000.25,0000.19,0000.25,18.7,25.0,03.7,02.5,0672.1,31.1
2021-07-01T07:37:00Z,00000200,00000000,-000.10,-000.23,0000.15,-000.97,0000.18,-000.10,0000.27,-000.08,0000.23,18.7,25.0,03.7,02.5,0672.1,31.1
2021-07-01T07:38:00Z,00000200,00000000,-000.01,0000.44,-000.27,-000.24,-000.08,-000.18,-000.09,-000.19,0000.10,18.6,25.0,03.8,02.6,0672.1,31.1
2021-07-01T07:39:00Z,00000200,00000000,-000.12,0000.28,0000.03,-000.04,0000.27,-000.13,0000.33,0000.37,0000.02,18.7,25.0,03.7,02.5,0672.1,31.1
2021-07-01T07:40:00Z,00000200,00000000,0000.40,0000.05,-000.00,-000.34,0000.19,-000.13,-000.15,0000.16,-000.26,18.7,25.0,03.8,02.6,0672.1,31.1
2021-07-01T07:41:00Z,00000200,00000000,0000.25,0000.22,-000.18,-000.06,-000.13,-000.24,-000.07,0000.15,0000.05,18.8,25.0,03.8,02.6,0672.1,31.1
2021-07-01T07:42:00Z,00000200,00000000,0000.62,0000.22,0000.45,-000.05,0000.09,-000.25,0000.23,0000.01,0000.46,18.9,25.1,03.8,02.6,0672.1,31.1
2021-07-01T07:43:00Z,00000200,00000000,0000.18,0000.28,0000.16,0000.15,0000.23,-000.55,-000.08,0000.04,-000.03,18.9,25.1,03.8,02.6,0672.1,31.1
2021-07-01T07:44:00Z,00000200,00000000,0000.47,0000.28,0000.23,-000.17,0000.06,-000.14,0000.01,-000.10,-000.17,19.0,25.2,03.7,02.5,0672.1,31.1
2021-07-01T07:45:00Z,00000200,00000000,0000.45,-000.07,0000.27,-000.22,-000.14,-000.02,0000.12,-000.18,0000.20,19.0,25.2,03.7,02.6,0672.1,31.1
2021-07-01T07:46:00Z,00000200,00000000,-000.08,0000.49,0000.34,-000.07,0000.05,0000.34,-000.04,0000.38,-000.07,19.1,25.2,03.9,02.7,0672.1,31.1
2021-07-01T07:47:00Z,00000200,00000000,0000.49,0000.06,-000.12,-000.64,0000.29,-000.24,-000.01,-000.46,-000.27,19.0,25.2,03.8,02.6,0672.1,31.1
2021-07-01T07:48:00Z,00000200,00000000,0000.57,0000.00,-000.03,-000.20,0000.25,-000.11,0000.08,0000.14,0000.04,19.0,25.2,03.8,02.6,0672.2,31.1
2021-07-01T07:49:00Z,00000200,00000000,0000.59,0000.06,0000.25,-000.45,0000.09,0000.06,-000.30,-000.09,-000.15,18.9,25.1,03.8,02.6,0672.2,31.1
2021-07-01T07:50:00Z,00000200,00000000,-000.39,0000.11,0000.12,-000.12,0000.43,-000.06,0000.14,0000.05,-000.09,18.8,25.1,03.8,02.6,0672.2,31.1
2021-07-01T07:51:00Z,00000200,00000000,0000.83,0000.09,-000.04,-000.11,0000.02,-000.21,-000.03,0000.13,0000.35,18.8,25.1,03.8,02.6,0672.2,31.1
2021-07-01T07:52:00Z,00000200,00000000,0000.24,0000.06,0000.12,-000.32,0000.21,-000.44,0000.02,-000.43,-000.20,18.7,25.0,03.9,02.6,0672.2,31.1
2021-07-01T07:53:00Z,00000200,00000000,0000.65,0000.35,0000.02,-000.11,0000.22,-000.10,0000.35,0000.53,0000.44,18.7,25.0,03.8,02.6,0672.2,31.1
2021-07-01T07:54:00Z,00000200,00000000,0000.47,0000.17,0000.14,-000.42,-000.01,0000.06,-000.01,0000.11,-000.10,18.8,25.0,03.8,02.6,0672.2,31.1
2021-07-01T07:55:00Z,00000200,00000000,0000.33,-000.11,0000.15,-000.78,-000.03,-000.09,-000.02,-000.04,0000.05,18.8,25.0,03.9,02.6,0672.3,31.1
2021-07-01T07:56:00Z,00000200,00000000,0000.26,0000.39,-000.01,0000.01,0000.14,-000.05,0000.18,0000.45,0000.17,18.9,25.0,03.8,02.6,0672.3,31.1
2021-07-01T07:57:00Z,00000200,40000000,,,,,,,-000.35,-000.30,-000.32,18.9,25.0,03.8,02.6,0672.3,31.1
2021-07-01T07:58:00Z,00000200,60000000,,,,,,,0000.14,-000.18,0000.15,18.8,25.3,03.6,02.4,0671.3,31.1
2021-07-01T07:59:00Z,00000200,20000000,,,,,,,-000.02,0000.35,0000.14,18.7,25.4,03.6,02.4,0671.3,31.1
